sat.trackr.live / text

‹ back to catalog

STARLINK-3529

NORAD 51724 · 2022-016L

PAYLOAD ACTIVE UNKNOWN

§ Identity

Operator
Country
US
Launch date
2022-02-21
Launch site
AFETR
Launch vehicle
Mass (kg)
RCS (m²)

Purposes: comms

External: N2YO · Heavens-Above · Gunter

§ Orbital elements

Epoch: 2026-05-24T19:35:23.886816Z

Period
95.44 min
Inclination
53.2150°
Eccentricity
0.0001462
Mean motion
15.08838801 rev/d
Perigee alt
538.7 km
Apogee alt
540.8 km
Semi-major
6,917.9 km
B*
4.7848e-5
RAAN
347.3749°
Arg perigee
93.5430°
Mean anomaly
266.5729°
Rev number
23,491

§ Raw data

STARLINK-35291 51724U 22016L   26144.81624869  .00000474  00000+0  47848-4 0  99902 51724  53.2150 347.3749 0001462  93.5430 266.5729 15.08838801234919

JSON: /api/v1/satellites/51724 · /tle

For live sub-satellite position, see the globe view (requires WebGL).

§ Visibility from observer

Set your observer location to see the next 7 days of passes ≥ 10°. The values pass through the URL so the page stays shareable.

No JS? Fill the form by hand. The geolocation button needs JavaScript.